Flag for USA

Past Weather in 34°09'47.6"N, 118°15'23.9"W, USA — Yesterday and Last 2 Weeks

Now
71 °F

Sunny.


Feels Like: 75 °F
Forecast: 72 / 60 °F
Wind: 7 mph from West

Location: Los Angeles / USC Campus Downtown

Current Time: May 28, 2020 at 5:58:48 pm

Latest Report: May 28, 2020 at 4:52 pm


Visibility: 10 mi

Pressure: 29.92 "Hg

Humidity: 63%

Dew Point: 58 °F

Location of 34°09'47.6"N, 118°15'23.9"WLocation

Past Weather in 34°09'47.6"N, 118°15'23.9"W — Graph

°F

34°09'47.6"N, 118°15'23.9"W Temperature Yesterday

Maximum temperature yesterday: 79 °F (at 11:52 am)
Minimum temperature yesterday: 60 °F (at 3:52 am)
Average temperature yesterday: 66 °F

High & Low Weather Summary for the Past Weeks

 TemperatureHumidityPressure
High82 °F (May 16, 12:52 pm)90% (May 26, 3:08 am)30.06 "Hg (May 26, 3:08 am)
Low58 °F (May 19, 4:52 am)31% (May 19, 1:52 pm)29.81 "Hg (May 16, 4:52 pm)
Average68 °F63%29.91 "Hg
* Reported May 13 4:52 pm — May 28 4:52 pm, 34°09'47.6"N, 118°15'23.9"W. Weather by CustomWeather, © 2020

Note: Actual official high and low records may vary slightly from our data, if they occured in-between our weather recording intervals... More about our weather records

34°09'47.6"N, 118°15'23.9"W Weather History for the Previous 24 Hours

Scroll right to see more
 ConditionsComfort  
Time TempWeatherWind HumidityBarometerVisibility
4:52 pm
Thu, May 28
71 °FSunny.7 mph63%29.92 "Hg10 mi
3:52 pm71 °FSunny.6 mph61%29.92 "Hg10 mi
2:52 pm72 °FSunny.7 mph61%29.94 "Hg10 mi
1:52 pm75 °FSunny.No wind58%29.93 "Hg9 mi
12:52 pm74 °FSunny.6 mph57%29.94 "Hg7 mi
11:52 am73 °FSunny.No wind62%29.94 "Hg7 mi
10:52 am73 °FSunny.5 mph62%29.94 "Hg7 mi
9:52 am72 °FSunny.No wind61%29.93 "Hg7 mi
8:52 am70 °FHaze.No wind68%29.93 "Hg6 mi
7:52 am66 °FOvercast.No wind73%29.93 "Hg5 mi
6:52 am64 °FOvercast.No wind78%29.93 "Hg4 mi
5:52 am64 °FOvercast.No wind78%29.91 "Hg5 mi
4:52 am63 °FOvercast.No wind81%29.90 "Hg6 mi
3:52 am63 °FOvercast.No wind81%29.91 "Hg6 mi
2:52 am64 °FOvercast.No wind78%29.91 "Hg6 mi
1:59 am63 °FOvercast.No wind81%29.93 "Hg7 mi
12:52 am62 °FLow clouds.No wind83%29.94 "Hg7 mi
11:52 pm
Wed, May 27
62 °FLow clouds.No wind83%29.95 "Hg6 mi
10:52 pm62 °FLow clouds.No wind83%29.96 "Hg6 mi
9:52 pm62 °FLow clouds.5 mph83%29.94 "Hg7 mi
8:52 pm63 °FLow clouds.No wind81%29.92 "Hg10 mi
8:31 pm63 °FPassing clouds.No wind81%29.92 "Hg10 mi
8:22 pm63 °FPassing clouds.6 mph81%29.91 "Hg10 mi
7:52 pm64 °FSunny.3 mph78%29.89 "Hg10 mi
6:52 pm68 °FSunny.5 mph68%29.87 "Hg10 mi
5:52 pm71 °FSunny.3 mph61%29.86 "Hg10 mi
Weather by CustomWeather, © 2020

See weather overview

Advertising